SCP
0 0 0 0 0 0 0 0 0 0 0 0 0 0 0 0 0 0 0 0 0 0 0 0 0 0 0 0 0 0 0 0 0 0 0 0 0 0
0 0 0 0 0 0 0 0 0 0 0 0 0 0 0 0 0 0 0 0 0 0 0 0 0 0 0 0 0 0 0 0 0 0 0 0 0 0
0 0 0 0 0 0 0 0 0 0 0 0 0 0 0 0 0 0 0 0 0 0 0 0 0 0 0 0 0 0 0 0 0 0 0 0 0 0
0 0 0 0 0 0 0 0 0 0 0 0 0 0 0 0 0 0 0 0 0 0 0 0 0 0 0 0 0 0 0 0 0 0 0 0 0 0
0 0 0 0 0 0 0 0 0 0 0 0 0 0 0 0 0 0 0 0 0 0 0 0 0 0 0 0 0 0 0 0 0 0 0 0 0 0
0 0 0 0 0 0 0 0 0 0 0 0 0 0 0 0 0 0 0 0 0 0 0 0 0 0 0 0 0 0 0 0 0 0 0 0 0 0
0 0 0 0 0 0 0 0 0 0 0 0 0 0 0 0 0 0 0 0 0 0 0 0 0 0 0 0 0 0 0 0 0 0 0 0 0 0
0 0 0 0 0 0 0 0 0 0 0 0 0 0 0 0 0 0 0 0 0 0 0 0 0 0 0 0 0 0 0 0 0 0 0 0 0 0
0 0 0 0 0 0 0 0 0 0 0 0 0 0 0 0 0 0 0 0 0 0 0 0 0 0 0 0 0 0 0 0 0 0 0 0 0 0
0 0 0 0 0 0 0 0 0 0 0 0 0 0 0 0 0 0 0 0 0 0 0 0 0 0 0 0 0 0 0 0 0 0 0 0 0 0
0 0 0 0 0 0 0 0 0 0 0 0 0 0 0 0 0 0 0 0 0 0 0 0 0 0 0 0 0 -0 0 0 0 0 0 0 0 0
0 0 0 0 0 0 0 0 0 0 0 0 0 0 0 0 0 0 0 0 0 0 0 0 0 0 0 0 0 0 0 0 0 0 0 0 0 0
0 0 0 0 0 0 0 0 0 0 0 0 0 0 0 0 0 0 0 0 0 0 0 0 0 0 0 0 0 0 0 0 0 0 0 0 0 0
0 0 0 0 0 0 0 0 0 0 0 0 0 0 0 0 0 0 0 0 0 0 0 0 0 0 0 0 0 0 0 0 0 0 0 0 0 0
0 0 0 0 0 0 0 0 0 0 0 0 0 0 0 0 0 0 0 0 0 0 0 0 0 0 0 0 0 0 0 0 0 0 0 0 0 0
0 0 0 0 0 0 0 0 0 0 0 0 0 0 0 0 0 0 0 0 0 0 0 0 0 0 0 0 0 0 0 0 0 0 0 0 0 0
0 0 0 0 0 0 0 0 0 0 0 0 0 0 0 0 0 0 0 0 0 0 0 0 0 0 0 0 0 0 0 0 0 0 0 0 0 0
0 0 0 0 0 0 0 0 0 0 0 0 0 0 0 0 0 0 0 0 0 0 0 0 0 0 0 0 0 0 0 0 0 0 0 0 0 0
0 0 0 0 0 0 0 0 0 0 0 0 0 0 0 0 0 0 0 0 0 0 0 0 0 0 0 0 0 0 0 0 0 0 0 0 0 0
0 0 0 0 0 0 0 0 0 0 0 0 0 0 0 0 0 0 0 0 0 0 0 0 0 0 0 0 0 0 0 0 0 0 0 0 0 0
0 0 0 0 0 0 0 0 0 0 0 0 0 0 0 0 0 0 0 0 0 0 0 0 0 0 0 0 0 0 0 0 0 0 0 0 0 0
0 0 0 0 0 0 0 0 0 0 0 0 0 0 0 0 0 0 0 0 0 0 0 0 0 0 0 0 0 0 0 0 0 0 0 0 0 0
0 0 0 0 0 0 0 0 0 0 0 0 0 0 0 0 0 0 0 0 0 0 0 0 0 0 0 0 0 0 0 0 0 0 0 0 0 0
Wind_Speed_500mb
49 48 48 50 51 56 63 65 59 53 67 68 74 82 82 81 71 56 54 47 38 29 21 22 13 8 9 8 7 9 14 18 18 16 19 19 19 18
47 48 46 47 49 51 54 57 59 61 55 74 82 88 90 81 69 55 58 48 38 34 24 22 15 9 10 10 9 13 17 20 21 21 20 20 19 12
45 43 42 47 50 50 54 57 60 63 62 59 80 82 91 80 65 58 53 42 42 35 24 20 12 10 10 9 10 16 21 24 25 23 20 17 6 8
45 39 44 50 53 53 53 53 63 65 62 64 65 81 85 80 66 60 54 47 42 37 26 19 14 8 9 11 12 14 17 21 22 19 15 18 14 15
48 49 51 54 53 50 52 60 64 72 73 77 67 76 74 73 70 63 55 49 43 36 28 20 14 13 14 14 12 11 12 15 19 18 16 14 17 23
50 50 49 49 51 59 63 63 67 76 73 70 65 70 69 75 73 69 61 51 46 38 30 21 22 21 17 12 8 8 11 16 19 16 11 9 15 20
51 53 54 56 57 57 61 64 60 58 61 55 67 70 78 88 85 78 67 56 44 38 34 31 29 25 18 11 7 6 10 14 16 14 10 4 7 15
57 61 63 59 60 64 68 66 71 76 76 65 73 81 88 89 85 80 69 62 53 46 41 36 29 23 17 13 9 7 7 9 14 15 15 6 4 5
63 67 71 67 65 69 71 65 63 59 56 55 66 75 79 78 77 78 69 61 51 51 51 41 37 33 24 27 15 12 9 7 10 13 9 7 3 1
60 68 74 74 76 76 75 77 73 66 63 56 52 56 55 63 68 63 60 55 43 42 52 48 47 43 33 27 20 17 14 10 11 12 8 8 6 4
50 48 44 50 64 73 74 75 71 68 68 54 42 35 42 48 55 63 69 70 61 49 51 52 54 46 40 33 26 24 18 14 10 8 7 10 10 6
48 46 51 56 54 64 67 73 76 76 71 64 56 48 45 48 57 64 68 72 70 52 65 55 51 52 35 39 33 30 24 18 13 10 6 10 12 9
45 41 39 37 55 63 73 71 73 73 65 64 62 61 61 60 64 67 62 60 66 54 56 65 55 50 26 27 44 37 31 22 19 15 13 14 16 24
54 47 35 35 38 69 71 67 72 64 68 69 66 66 65 64 66 63 57 55 52 50 36 59 57 51 46 34 32 43 38 29 23 15 12 17 20 23
53 50 40 30 38 65 67 65 64 62 74 72 71 70 65 64 64 61 58 54 46 41 40 43 52 40 41 33 35 33 37 36 29 27 23 20 16 16
48 44 45 44 46 51 73 71 71 74 79 79 76 71 71 67 66 66 67 60 52 48 47 41 40 38 39 35 31 30 30 20 31 32 24 22 22 21
48 43 45 50 51 56 70 78 76 75 83 77 78 77 73 71 69 68 66 64 62 62 57 49 45 41 37 41 34 30 28 27 22 28 29 24 25 23
48 49 52 61 66 67 76 88 85 87 81 79 79 76 75 77 77 73 71 68 67 63 61 58 53 50 45 40 37 31 30 27 27 32 26 25 24 26
60 59 60 62 66 76 82 101 98 91 85 83 83 76 76 79 79 78 77 72 66 54 47 52 55 51 38 37 35 45 31 30 30 33 29 27 24 25
71 68 67 67 73 75 83 90 99 94 93 89 83 78 78 81 79 77 69 70 57 49 47 44 48 48 42 38 39 36 47 34 35 31 29 26 26 36
79 75 72 72 76 74 79 93 105 102 98 93 90 85 83 82 74 64 60 65 58 53 51 47 42 42 32 33 41 31 42 48 37 30 28 29 28 24
73 77 77 74 79 74 78 81 105 104 98 98 93 90 83 82 78 73 69 66 59 51 47 40 39 43 39 33 29 29 28 43 48 42 43 37 27 23
70 77 70 73 78 76 75 78 98 104 98 99 99 89 83 85 76 70 66 62 54 49 44 42 40 37 39 34 32 27 28 34 37 44 47 47 44 38
Wind_Direction_500mb
266 265 262 261 264 265 258 251 243 214 210 207 202 201 200 202 207 208 204 196 187 186 188 190 185 224 283 290 312 314 311 315 316 305 298 297 296 301
270 266 262 263 258 254 254 254 244 237 217 221 216 209 205 206 206 209 195 192 191 194 188 190 197 231 288 294 307 313 320 319 313 304 294 284 287 295
265 271 264 257 250 243 244 242 241 235 237 226 223 216 205 206 204 197 193 183 198 198 197 190 205 237 267 283 310 324 323 314 307 300 292 274 263 150
259 259 262 256 250 251 243 244 245 239 237 241 225 213 209 203 194 194 193 190 199 195 197 195 219 257 279 288 294 303 309 297 292 294 286 244 178 172
261 258 255 248 249 248 255 258 251 248 245 236 223 200 200 196 197 198 193 192 191 194 198 204 221 235 248 258 280 291 301 318 318 314 292 271 215 191
267 259 254 249 253 262 266 257 252 245 240 229 214 192 193 197 203 196 191 188 188 192 198 205 220 227 227 237 281 319 333 338 335 327 310 265 228 215
263 255 251 260 270 268 256 255 242 241 221 205 199 194 190 193 197 194 192 186 190 198 198 204 215 215 213 229 248 297 331 346 346 340 342 338 271 243
267 259 259 265 268 262 256 253 251 236 217 197 194 195 196 196 198 197 192 188 183 198 207 202 200 194 194 178 232 267 300 336 352 349 326 328 301 288
270 266 264 267 267 257 247 235 222 214 225 221 209 203 201 201 201 198 199 202 204 205 204 200 194 187 177 214 223 236 257 302 332 330 299 281 268 345
283 275 274 274 268 253 237 224 219 219 218 214 224 226 218 214 208 210 205 193 202 214 207 196 197 201 196 223 215 231 248 282 312 305 248 234 247 290
284 280 285 296 279 260 242 231 225 218 215 211 211 200 209 206 204 203 194 196 198 206 197 206 199 205 209 221 227 234 245 260 296 301 257 218 214 239
288 283 287 282 284 258 247 235 229 218 208 199 192 185 186 190 206 208 207 202 204 195 199 203 200 202 194 215 227 241 239 242 245 271 254 230 227 182
280 287 285 285 266 245 251 243 235 224 209 203 196 192 190 191 201 210 213 214 212 209 209 204 202 198 196 211 213 224 240 235 243 254 239 229 198 171
280 284 292 277 269 250 249 234 230 222 213 202 199 196 195 192 198 207 207 210 216 223 216 208 208 205 207 205 198 210 217 232 226 211 220 240 212 209
280 282 271 276 272 252 250 224 222 212 218 207 202 200 198 195 193 194 197 203 202 203 199 199 210 211 215 211 210 209 206 222 228 228 215 222 212 215
273 274 264 266 270 263 243 216 214 212 220 213 205 201 200 196 196 195 192 193 193 196 194 193 199 206 205 199 211 209 204 208 215 219 217 206 215 221
268 266 255 251 253 246 230 215 207 213 214 209 207 204 199 197 198 195 195 193 194 196 198 196 196 202 207 210 197 210 199 202 224 205 206 208 213 220
258 252 255 249 247 240 232 216 206 208 208 209 208 205 201 198 197 195 196 197 198 198 204 201 199 201 208 212 205 204 203 198 205 211 205 205 217 221
253 251 250 249 245 239 237 222 207 206 207 207 207 202 200 199 197 195 195 196 200 204 202 204 204 205 197 210 219 213 202 198 206 210 205 208 214 225
243 246 247 247 243 239 232 228 211 207 206 207 203 201 199 197 195 195 193 192 191 195 196 200 203 202 204 206 213 219 207 204 203 204 208 211 212 216
236 239 243 246 244 241 237 228 214 209 206 203 203 202 200 199 196 190 189 191 192 197 195 198 201 200 195 201 209 210 204 204 201 205 208 210 219 228
242 238 243 245 242 240 234 230 218 210 204 203 204 205 201 202 201 195 194 192 192 197 195 192 191 192 191 200 207 216 210 210 216 214 200 208 210 220
245 241 242 244 242 237 234 228 220 209 204 204 206 206 203 202 204 201 202 198 191 192 187 185 187 189 198 201 199 204 204 214 210 217 220 222 216 216
Wind_Speed_850mb
49 48 48 50 51 56 63 65 59 53 67 68 74 82 82 81 71 56 54 47 38 29 21 22 13 8 9 8 7 9 14 18 18 16 19 19 19 18
47 48 46 47 49 51 54 57 59 61 55 74 82 88 90 81 69 55 58 48 38 34 24 22 15 9 10 10 9 13 17 20 21 21 20 20 19 12
45 43 42 47 50 50 54 57 60 63 62 59 80 82 91 80 65 58 53 42 42 35 24 20 12 10 10 9 10 16 21 24 25 23 20 17 6 8
45 39 44 50 53 53 53 53 63 65 62 64 65 81 85 80 66 60 54 47 42 37 26 19 14 8 9 11 12 14 17 21 22 19 15 18 14 15
48 49 51 54 53 50 52 60 64 72 73 77 67 76 74 73 70 63 55 49 43 36 28 20 14 13 14 14 12 11 12 15 19 18 16 14 17 23
50 50 49 49 51 59 63 63 67 76 73 70 65 70 69 75 73 69 61 51 46 38 30 21 22 21 17 12 8 8 11 16 19 16 11 9 15 20
51 53 54 56 57 57 61 64 60 58 61 55 67 70 78 88 85 78 67 56 44 38 34 31 29 25 18 11 7 6 10 14 16 14 10 4 7 15
57 61 63 59 60 64 68 66 71 76 76 65 73 81 88 89 85 80 69 62 53 46 41 36 29 23 17 13 9 7 7 9 14 15 15 6 4 5
63 67 71 67 65 69 71 65 63 59 56 55 66 75 79 78 77 78 69 61 51 51 51 41 37 33 24 27 15 12 9 7 10 13 9 7 3 1
60 68 74 74 76 76 75 77 73 66 63 56 52 56 55 63 68 63 60 55 43 42 52 48 47 43 33 27 20 17 14 10 11 12 8 8 6 4
50 48 44 50 64 73 74 75 71 68 68 54 42 35 42 48 55 63 69 70 61 49 51 52 54 46 40 33 26 24 18 14 10 8 7 10 10 6
48 46 51 56 54 64 67 73 76 76 71 64 56 48 45 48 57 64 68 72 70 52 65 55 51 52 35 39 33 30 24 18 13 10 6 10 12 9
45 41 39 37 55 63 73 71 73 73 65 64 62 61 61 60 64 67 62 60 66 54 56 65 55 50 26 27 44 37 31 22 19 15 13 14 16 24
54 47 35 35 38 69 71 67 72 64 68 69 66 66 65 64 66 63 57 55 52 50 36 59 57 51 46 34 32 43 38 29 23 15 12 17 20 23
53 50 40 30 38 65 67 65 64 62 74 72 71 70 65 64 64 61 58 54 46 41 40 43 52 40 41 33 35 33 37 36 29 27 23 20 16 16
48 44 45 44 46 51 73 71 71 74 79 79 76 71 71 67 66 66 67 60 52 48 47 41 40 38 39 35 31 30 30 20 31 32 24 22 22 21
48 43 45 50 51 56 70 78 76 75 83 77 78 77 73 71 69 68 66 64 62 62 57 49 45 41 37 41 34 30 28 27 22 28 29 24 25 23
48 49 52 61 66 67 76 88 85 87 81 79 79 76 75 77 77 73 71 68 67 63 61 58 53 50 45 40 37 31 30 27 27 32 26 25 24 26
60 59 60 62 66 76 82 101 98 91 85 83 83 76 76 79 79 78 77 72 66 54 47 52 55 51 38 37 35 45 31 30 30 33 29 27 24 25
71 68 67 67 73 75 83 90 99 94 93 89 83 78 78 81 79 77 69 70 57 49 47 44 48 48 42 38 39 36 47 34 35 31 29 26 26 36
79 75 72 72 76 74 79 93 105 102 98 93 90 85 83 82 74 64 60 65 58 53 51 47 42 42 32 33 41 31 42 48 37 30 28 29 28 24
73 77 77 74 79 74 78 81 105 104 98 98 93 90 83 82 78 73 69 66 59 51 47 40 39 43 39 33 29 29 28 43 48 42 43 37 27 23
70 77 70 73 78 76 75 78 98 104 98 99 99 89 83 85 76 70 66 62 54 49 44 42 40 37 39 34 32 27 28 34 37 44 47 47 44 38
Wind_Direction_850mb
266 265 262 261 264 265 258 251 243 214 210 207 202 201 200 202 207 208 204 196 187 186 188 190 185 224 283 290 312 314 311 315 316 305 298 297 296 301
270 266 262 263 258 254 254 254 244 237 217 221 216 209 205 206 206 209 195 192 191 194 188 190 197 231 288 294 307 313 320 319 313 304 294 284 287 295
265 271 264 257 250 243 244 242 241 235 237 226 223 216 205 206 204 197 193 183 198 198 197 190 205 237 267 283 310 324 323 314 307 300 292 274 263 150
259 259 262 256 250 251 243 244 245 239 237 241 225 213 209 203 194 194 193 190 199 195 197 195 219 257 279 288 294 303 309 297 292 294 286 244 178 172
261 258 255 248 249 248 255 258 251 248 245 236 223 200 200 196 197 198 193 192 191 194 198 204 221 235 248 258 280 291 301 318 318 314 292 271 215 191
267 259 254 249 253 262 266 257 252 245 240 229 214 192 193 197 203 196 191 188 188 192 198 205 220 227 227 237 281 319 333 338 335 327 310 265 228 215
263 255 251 260 270 268 256 255 242 241 221 205 199 194 190 193 197 194 192 186 190 198 198 204 215 215 213 229 248 297 331 346 346 340 342 338 271 243
267 259 259 265 268 262 256 253 251 236 217 197 194 195 196 196 198 197 192 188 183 198 207 202 200 194 194 178 232 267 300 336 352 349 326 328 301 288
270 266 264 267 267 257 247 235 222 214 225 221 209 203 201 201 201 198 199 202 204 205 204 200 194 187 177 214 223 236 257 302 332 330 299 281 268 345
283 275 274 274 268 253 237 224 219 219 218 214 224 226 218 214 208 210 205 193 202 214 207 196 197 201 196 223 215 231 248 282 312 305 248 234 247 290
284 280 285 296 279 260 242 231 225 218 215 211 211 200 209 206 204 203 194 196 198 206 197 206 199 205 209 221 227 234 245 260 296 301 257 218 214 239
288 283 287 282 284 258 247 235 229 218 208 199 192 185 186 190 206 208 207 202 204 195 199 203 200 202 194 215 227 241 239 242 245 271 254 230 227 182
280 287 285 285 266 245 251 243 235 224 209 203 196 192 190 191 201 210 213 214 212 209 209 204 202 198 196 211 213 224 240 235 243 254 239 229 198 171
280 284 292 277 269 250 249 234 230 222 213 202 199 196 195 192 198 207 207 210 216 223 216 208 208 205 207 205 198 210 217 232 226 211 220 240 212 209
280 282 271 276 272 252 250 224 222 212 218 207 202 200 198 195 193 194 197 203 202 203 199 199 210 211 215 211 210 209 206 222 228 228 215 222 212 215
273 274 264 266 270 263 243 216 214 212 220 213 205 201 200 196 196 195 192 193 193 196 194 193 199 206 205 199 211 209 204 208 215 219 217 206 215 221
268 266 255 251 253 246 230 215 207 213 214 209 207 204 199 197 198 195 195 193 194 196 198 196 196 202 207 210 197 210 199 202 224 205 206 208 213 220
258 252 255 249 247 240 232 216 206 208 208 209 208 205 201 198 197 195 196 197 198 198 204 201 199 201 208 212 205 204 203 198 205 211 205 205 217 221
253 251 250 249 245 239 237 222 207 206 207 207 207 202 200 199 197 195 195 196 200 204 202 204 204 205 197 210 219 213 202 198 206 210 205 208 214 225
243 246 247 247 243 239 232 228 211 207 206 207 203 201 199 197 195 195 193 192 191 195 196 200 203 202 204 206 213 219 207 204 203 204 208 211 212 216
236 239 243 246 244 241 237 228 214 209 206 203 203 202 200 199 196 190 189 191 192 197 195 198 201 200 195 201 209 210 204 204 201 205 208 210 219 228
242 238 243 245 242 240 234 230 218 210 204 203 204 205 201 202 201 195 194 192 192 197 195 192 191 192 191 200 207 216 210 210 216 214 200 208 210 220
245 241 242 244 242 237 234 228 220 209 204 204 206 206 203 202 204 201 202 198 191 192 187 185 187 189 198 201 199 204 204 214 210 217 220 222 216 216